Overview Statistics Trail Chart Weather Telemetry Raw packets
 

This is the latest recevied weather packets stored in our database for station/object SV6GMP-10. If no packets are shown the sender has not sent any weather packets the latest 10 day(s).

<< 1 2 3 4 5 6 7 >>
Time Temp. Humidity Pressure Rain* Wind** Luminosity Snow
1788538701 32.22° C 56% 1014.3 hPa - - - -
1788537801 32.78° C 53% 1014.1 hPa - - - -
1788536901 32.78° C 53% 1014.1 hPa - - - -
1788536001 32.78° C 55% 1014.1 hPa - - - -
1788535101 32.22° C 55% 1014.1 hPa - - - -
1788534201 33.33° C 51% 1014.1 hPa - - - -
1788533301 32.78° C 51% 1014.1 hPa - - - -
1788532401 33.33° C 51% 1014 hPa - - - -
1788531501 33.33° C 52% 1013.9 hPa - - - -
1788530601 33.33° C 51% 1014 hPa - - - -
1788529701 33.33° C 51% 1014 hPa - - - -
1788527901 33.33° C 48% 1014.1 hPa - - - -
1788527001 33.33° C 47% 1014.1 hPa - - - -
1788526100 33.33° C 47% 1014.2 hPa - - - -
1788525200 33.33° C 46% 1014.2 hPa - - - -
1788524300 32.78° C 47% 1014.3 hPa - - - -
1788523400 33.33° C 45% 1014.5 hPa - - - -
1788522500 33.33° C 39% 1014.6 hPa - - - -
1788521600 33.33° C 38% 1014.5 hPa - - - -
1788520700 33.89° C 38% 1014.7 hPa - - - -
1788519800 33.33° C 38% 1014.7 hPa - - - -
1788518900 32.78° C 40% 1014.8 hPa - - - -
1788518000 32.78° C 42% 1014.9 hPa - - - -
1788517100 32.78° C 42% 1015 hPa - - - -
1788516200 33.33° C 38% 1015.1 hPa - - - -

* Rain since midnight (hover to see other rain measurements)
** Current wind speed in m/s (hover to see current wind gust speed)